box saran
daftar

Jackpot

Texas Poker Multi Jackpot System

Kini Telah hadir Jackpot SUPER ROYAL FLUSH

Kini Telah hadir Jackpot 2000 (khusus table VIP keatas).

Ikutilah global jackpot yang tersedia di system kami, dengan system jackpot terbaru dan pertama di indonesia, anda dapat membeli jackpot dengan harga 100 rupiah saja dan menangkan hadiahnya hingga puluhan juta rupiah.

Jackpot bukanlah suatu keharusan untuk dibeli, namun kami memberikan suatu fitur tambahan untuk member tercinta dari www.score88poker.biz.

Terdapat tiga pilihan harga jackpot yang bisa anda beli yaitu :100,500,1000 dan 2000(khusus table VIP Keatas) rupiah.

Hadiah dari Multi jackpot system www.score88poker.biz

  1. full house x 10 harga jackpot yang anda beli.
      (contoh:anda membeli 1000 maka:1000 X10 = 10.000)
  2. four of kind x 250 harga jackpot yang anda beli
      (contoh:anda membeli 1000 maka:1000 X250 = 250.000)
  3. Straight flush x 1200
      (contoh:anda membeli 1000 maka:1000 X1200 = 1.200.000)
  4. Royal flush x 10000 harga jackpot yang anda beli
      (contoh:anda membeli 1000 maka:1000 X10000 = 10.000.000)
  5. SUPER ROYAL FLUSH x 30000 harga jackpot yang anda beli
      (contoh:anda membeli 1000 maka:1000 X30000 = 30.000.000)

Kondisi kartu

  1. full house adalah kondisi kartu dimana kartu anda dan kartu tengah dengan total 7 kartu bisa mendapatkan nilai 5 kartu dengan kombinasi 1 tris(three of kind) dan 1 pair, contoh 3 kartu 10 dan 2 kartu 5
  2. Four of kind adalah kondisi kartu dimana kartu anda dan kartu tengah dengan total 7 kartu bisa mendapatkan nilai 5 kartu dengan kombinasi 4 kartu yang sama jumlah dan 1 kartu apapun juga contoh anda mendapatkan 4 buah kartu angka 3 dan 1 kartu apapun.
  3. Staright flush adalah kondisi kartu dimana kartu anda dan kartu tengah dengan total 7 kartu bisa mendapatkan nilai 5 kartu dengan kombinasi seri / staright dengan kembang yang sama contoh : urutan kartu dari angka 5, 6, 7, 8 , 9 10 dengan kembang yg sama misalnya as hati
  4. Royal flush adalah kondisi kartu dimana kartu anda dan kartu tengah dengan total 7 kartu bisa mendapatkan nilai 5 kartu dengan kombinasi seri / staright dengan kembang yang sama tetapi kartu tersebut haruslah dimulai dari 10. contoh 10, Queen, Jack, King dan aces dengan kembang yang sama
  5. Super Royal flush adalah kondisi kartu dimana Kedua kartu anda digabung dengan 3 kartu pertama meja haruslah royal flush. contoh kartu anda 10,Queen kembang sama dan 3 kartu pertama meja adalah Jack, King dan aces dengan kembang yang sama

Demikian adalah penjelasan dari Multi Jackpot www.score88poker.biz terima kasih dan selamat bermain salam hoki dari kami

Texas Poker Jackpot Winner

TOP SUPER ROYAL FLUSH
No.TanggalNamaPriceWin
128/07 20:15UUUUUUUUSuper Royal flush15,000,000
228/07 16:08OBATNYA22Super Royal flush15,000,000
328/07 11:10DEKII123Super Royal flush6,000,000
428/07 01:39ANJEN9Super Royal flush1,500,000
527/07 23:14RINOV75Super Royal flush30,000,000
TOP ROYAL FLUSH
No.TanggalNamaPriceWin
128/07 21:46BILBOY03Royal flush2,000,000
228/07 21:44RONNIE9Royal flush1,000,000
328/07 21:41LOEW77Royal flush10,000,000
428/07 21:24E2DEE827Royal flush1,000,000
528/07 21:22A1274Royal flush5,000,000
TOP STRAIGHT FLUSH
No.TanggalNamaPriceWin
128/07 22:05ETOO777Straight Flush2,400,000
228/07 22:04HANS68Straight Flush240,000
328/07 22:04QQPIANQQStraight Flush120,000
428/07 22:03TR3S55Straight Flush240,000
528/07 22:03JELITAStraight Flush600,000
LATEST JACKPOT
No.TanggalNamaPriceWin
128/07 22:05ROONI80Full House10,000
228/07 22:05CMD72693Four Of A Kind25,000
328/07 22:05SEMAR26XFull House10,000
428/07 22:05BOMBR19Full House10,000
528/07 22:05MANDAQUFull House500
628/07 22:05BADARAM77Full House5,000
728/07 22:05T1NT4Full House5,000
828/07 22:05ETOO777Straight Flush2,400,000
928/07 22:05RAGNARAAFull House5,000
1028/07 22:05EWIES0707Full House5,000
1128/07 22:05KAKABIL00Full House5,000
1228/07 22:05TEMPA4T99Full House10,000
1328/07 22:05XTRA9999Full House1,000
1428/07 22:05TOMPEL777Full House1,000
1528/07 22:05E5485817Full House10,000
1628/07 22:04ALEA011Full House5,000
1728/07 22:04YEHEZKIELFull House1,000
1828/07 22:04JUGULLFull House1,000
1928/07 22:04BUDHUK99Full House2,000
2028/07 22:04JD2RR4NCUYFull House5,000
2128/07 22:04SAYANG92Full House2,000
2228/07 22:04HUNT3R_Full House5,000
2328/07 22:04TOCAWAGT9ZFull House5,000
2428/07 22:04EXGAFATARFull House10,000
2528/07 22:04Y1716580Q41K36OFour Of A Kind125,000
2628/07 22:04BULEPE16Full House2,000
2728/07 22:04WAZENKBASFull House10,000
2828/07 22:04GENEROUS1Full House5,000
2928/07 22:04KURNI07Full House10,000
3028/07 22:04KIREY85Full House5,000
3128/07 22:04LICIANOFull House1,000
3228/07 22:04THAMPREN82Full House10,000
3328/07 22:04LAMGOOK3Full House1,000
3428/07 22:04DOA_D3WAFull House10,000
3528/07 22:04NANGLUFull House1,000
3628/07 22:04SEANNAFull House5,000
3728/07 22:04ALUN87Full House2,000
3828/07 22:04K4M7174Full House5,000
3928/07 22:04TEBELAK8Full House2,000
4028/07 22:04G4Z4SFull House500
4128/07 22:04SURYA257Full House2,000
4228/07 22:04HANS68Straight Flush240,000
4328/07 22:04AF8C4488Four Of A Kind125,000
4428/07 22:04BECEKH93Full House2,000
4528/07 22:04MVP001Full House5,000
4628/07 22:04REGAR31Full House1,000
4728/07 22:04DOVISIOZOFull House5,000
4828/07 22:04NEGRANU7Full House2,000
4928/07 22:04BAB87070Full House5,000
5028/07 22:04TAMUHOKYFull House5,000

Domino Multi Jackpot System

Ikutilah global jackpot yang tersedia di system kami, dengan system jackpot terbaru dan pertama di indonesia, anda dapat membeli jackpot dengan harga 100 rupiah saja dan menangkan hadiahnya hingga puluhan juta rupiah.

Jackpot bukanlah suatu keharusan untuk dibeli, namun kami memberikan suatu fitur tambahan untuk member tercinta dari www.score88poker.biz.

Terdapat tiga pilihan harga jackpot yang bisa anda beli yaitu :100,500 dan 1000 rupiah.

Hadiah dari Multi jackpot system www.score88poker.biz

  1. Murni Kecil x 50 harga jackpot yang anda beli.
      (contoh:anda membeli 1000 maka:1000 X 50 = 50.000)
  2. Murni Besar x 50 harga jackpot yang anda beli
      (contoh:anda membeli 1000 maka:1000 X 50 = 50.000)
  3. BALAK x 100 harga jackpot yang anda beli
      (contoh:anda membeli 1000 maka:1000 X 100 = 100.000)
  4. ENAM DEWA x 6666 harga jackpot yang anda beli
      (contoh:anda membeli 1000 maka:1000 X 6666 = 6.666.000)

Demikian adalah penjelasan dari Multi Jackpot www.score88poker.biz terima kasih dan selamat bermain salam hoki dari kami

Domino Jackpot Winner

TOP ENAM DEWA
No.TanggalNamaPriceWin
128/07 22:00LOBSTER99murni enam6,666,000
228/07 21:54SUPERH3RO8murni enam666,600
328/07 17:12SELO21murni enam3,333,000
428/07 16:31YUSUPKALLAmurni enam3,333,000
528/07 16:07PANJI_78murni enam6,666,000
TOP BALAK
No.TanggalNamaPriceWin
128/07 22:01KINOMbalak10,000
228/07 22:00RAMSEY77balak100,000
328/07 21:59F34AEE28balak50,000
428/07 21:59FORZAYKbalak100,000
528/07 21:56JOEL2199balak100,000
LATEST JACKPOT
No.TanggalNamaPriceWin
128/07 22:04SADJIE07murni kecil25,000
228/07 22:04A5C6Q3W74Zmurni kecil5,000
328/07 22:03MAZ2004murni kecil5,000
428/07 22:03OKBROOmurni kecil25,000
528/07 22:02ASS777murni besar50,000
628/07 22:02OGAWA74murni besar25,000
728/07 22:02WAHYUHDYTmurni besar5,000
828/07 22:01ALIE80murni besar50,000
928/07 22:01DENII11murni besar50,000
1028/07 22:01KINOMbalak10,000
1128/07 22:01RAZAKHImurni besar50,000
1228/07 22:00RAMSEY77balak100,000
1328/07 22:00LOBSTER99murni enam6,666,000
1428/07 21:59JUST_AWImurni kecil50,000
1528/07 21:59ENDEHOYmurni kecil50,000
1628/07 21:59MAZ2004murni besar5,000
1728/07 21:59YUSUPKALLAmurni kecil25,000
1828/07 21:59F34AEE28balak50,000
1928/07 21:59FORZAYKbalak100,000
2028/07 21:58ARISYA3Dmurni besar25,000
2128/07 21:58KODYAmurni kecil5,000
2228/07 21:58KOMISI7murni kecil50,000
2328/07 21:56UWALmurni besar25,000
2428/07 21:56SIKADAL27murni kecil50,000
2528/07 21:56D3NBAGUS99murni kecil50,000
2628/07 21:56JOEL2199balak100,000
2728/07 21:55DALAKmurni besar50,000
2828/07 21:55D93MBUQ20Cmurni kecil25,000
2928/07 21:55SPTWOTU123murni kecil5,000
3028/07 21:55TEGAR099murni kecil5,000
3128/07 21:54AJO3737murni besar50,000
3228/07 21:54SUPERH3RO8murni enam666,600
3328/07 21:54ADET47murni besar50,000
3428/07 21:53T4NTE_LOYmurni kecil50,000
3528/07 21:53KAJINE16murni kecil50,000
3628/07 21:52BONI18murni kecil50,000
3728/07 21:51MENTORmurni kecil25,000
3828/07 21:51SIKODOK27murni besar50,000
3928/07 21:51WINDI21murni kecil50,000
4028/07 21:50LIMPAHHHmurni besar50,000
4128/07 21:50UWALmurni besar25,000
4228/07 21:50VALDO017murni besar25,000
4328/07 21:50MOCHAMMADmurni kecil50,000
4428/07 21:49CARLO333murni kecil25,000
4528/07 21:47ZU14Kmurni besar5,000
4628/07 21:47MENGKOMENGmurni besar50,000
4728/07 21:46CIRET99murni kecil50,000
4828/07 21:46EDBERTTTmurni kecil50,000
4928/07 21:45CARERA27murni besar25,000
5028/07 21:44TEPUCEKmurni besar25,000

Ceme Multi Jackpot System

Jackpot dilihat dari gabungan kartu pemain dengan kartu bandar. Bandar harus membeli jackpot sebanyak jumlah player yang sedang duduk. Sebagai contoh bila terdapat 3 pemain duduk bermain, dan bandar memutuskan untuk membeli jackpot Rp 1.000, maka pada periode tersebut bandar akan membeli jackpot sebanyak 3xRp1.000 = Rp3.000.

Jackpot bukanlah suatu keharusan untuk dibeli, namun kami memberikan suatu fitur tambahan untuk member tercinta dari www.score88poker.biz.

Terdapat tiga pilihan harga jackpot yang bisa anda beli yaitu :100,500 dan 1000 rupiah.

Hadiah dari Multi jackpot system www.score88poker.biz

  1. Murni Kecil x 50 harga jackpot yang anda beli.
      (contoh:anda membeli 1000 maka:1000 X 50 = 50.000)
  2. Murni Besar x 50 harga jackpot yang anda beli
      (contoh:anda membeli 1000 maka:1000 X 50 = 50.000)
  3. BALAK x 200 harga jackpot yang anda beli
      (contoh:anda membeli 1000 maka:1000 X 200 = 200.000)
  4. ENAM DEWA x 6666 harga jackpot yang anda beli
      (contoh:anda membeli 1000 maka:1000 X 6666 = 6.666.000)

Demikian adalah penjelasan dari Multi Jackpot www.score88poker.biz terima kasih dan selamat bermain salam hoki dari kami

Ceme Jackpot Winner

TOP ENAM DEWA
No.TanggalNamaPriceWin
128/07 21:55YOGASNIH37murni enam3,333,000
228/07 21:55DEL10NEmurni enam666,600
328/07 21:54ROYYALLmurni enam6,666,000
428/07 21:54KIIMM2murni enam3,333,000
528/07 21:47OBIHH393murni enam6,666,000
TOP BALAK
No.TanggalNamaPriceWin
128/07 22:04MEMEKMEONGbalak20,000
228/07 22:04CHUNGBAAbalak200,000
328/07 22:04POHON123balak200,000
428/07 22:03JOEBERbalak200,000
528/07 22:02HOKY151297balak200,000
LATEST JACKPOT
No.TanggalNamaPriceWin
128/07 22:05AYAEK18murni kecil25,000
228/07 22:04MEMEKMEONGbalak20,000
328/07 22:04CHUNGBAAbalak200,000
428/07 22:04MIOSPORTImurni kecil50,000
528/07 22:04VANILAICEmurni besar5,000
628/07 22:04OTONG1933murni kecil50,000
728/07 22:04ADIE2389murni kecil50,000
828/07 22:04TIDAKBISAmurni kecil25,000
928/07 22:04ROYYALLmurni kecil50,000
1028/07 22:04ANDRI0811murni besar50,000
1128/07 22:04LK4DAMIAWATmurni besar5,000
1228/07 22:04ENTOWXJI8Smurni kecil50,000
1328/07 22:04POHON123murni kecil50,000
1428/07 22:04OKE_LAH11murni kecil5,000
1528/07 22:04POHON123balak200,000
1628/07 22:03JOEBERbalak200,000
1728/07 22:03EFFAE8C0murni besar5,000
1828/07 22:03JEBRAG77murni besar50,000
1928/07 22:03OTONG1933murni besar25,000
2028/07 22:03KP999981murni besar25,000
2128/07 22:03IDULFITRI8murni kecil50,000
2228/07 22:03TENGKImurni besar50,000
2328/07 22:03IH89murni kecil50,000
2428/07 22:03MARUTOHOmurni kecil50,000
2528/07 22:03MHERI9murni besar25,000
2628/07 22:03TIONG_BDmurni kecil50,000
2728/07 22:02MONKPHPmurni kecil50,000
2828/07 22:02CUM11murni besar50,000
2928/07 22:02ARSA0506murni besar50,000
3028/07 22:02HAIKAL44murni besar50,000
3128/07 22:02ADAM20murni besar50,000
3228/07 22:02HAIKAL44murni besar50,000
3328/07 22:02DANCU96murni besar5,000
3428/07 22:02NAPSUJUDImurni besar5,000
3528/07 22:02ERWIN81murni besar50,000
3628/07 22:02DONNY_18murni besar25,000
3728/07 22:02GALOGA11murni besar50,000
3828/07 22:02BINTANGQU1murni besar50,000
3928/07 22:02IDNGKYYK100murni kecil5,000
4028/07 22:02RAJAURKARmurni kecil50,000
4128/07 22:02HOKY151297balak200,000
4228/07 22:02HOTMA33balak200,000
4328/07 22:02MISBAKbalak20,000
4428/07 22:02KNF11murni besar50,000
4528/07 22:02TIONG_BDmurni kecil50,000
4628/07 22:02TABON86murni kecil25,000
4728/07 22:02KILLME99murni kecil50,000
4828/07 22:02NAPSUJUDImurni kecil5,000
4928/07 22:02BOYKA78murni besar5,000
5028/07 22:02ABU034balak200,000